Time,TemperatureF,DewpointF,PressureIn,WindDirection,WindDirectionDegrees,WindSpeedMPH,WindSpeedGustMPH,Humidity,HourlyPrecipIn,Conditions,Clouds,dailyrainin,SolarRadiationWatts/m^2,SoftwareType,DateUTC
2013-08-29 00:08:00,66.0,66.0,-100.00,WNW,295,3.0,4.0,100,0.02,,,0.86,0.000000,,2013-08-29 04:08:00,
2013-08-29 00:46:00,66.0,66.0,-100.00,WNW,284,3.0,5.0,100,0.00,,,0.86,0.000000,,2013-08-29 04:46:00,
2013-08-29 00:54:00,66.0,66.0,-100.00,WNW,284,3.0,5.0,100,0.00,,,0.86,0.000000,,2013-08-29 04:54:00,
2013-08-29 01:05:00,66.0,66.0,-100.00,WNW,284,3.0,5.0,100,0.00,,,0.86,0.000000,,2013-08-29 05:05:00,
2013-08-29 01:14:00,66.0,66.0,-100.00,WNW,284,3.0,5.0,100,0.00,,,0.86,0.000000,,2013-08-29 05:14:00,
2013-08-29 01:42:00,66.0,66.0,-100.00,WNW,300,3.0,5.0,100,0.00,,,0.85,0.000000,,2013-08-29 05:42:00,
2013-08-29 01:52:00,66.0,66.0,-100.00,WNW,300,3.0,5.0,100,0.00,,,0.85,0.000000,,2013-08-29 05:52:00,
2013-08-29 02:02:00,66.0,66.0,-100.00,WNW,300,3.0,5.0,100,0.00,,,0.85,0.000000,,2013-08-29 06:02:00,
2013-08-29 02:12:00,66.0,66.0,-100.00,WNW,300,3.0,5.0,100,0.00,,,0.85,0.000000,,2013-08-29 06:12:00,
2013-08-29 02:43:00,66.0,66.0,-100.00,NW,316,2.0,6.0,100,0.00,,,0.85,0.000000,,2013-08-29 06:43:00,
2013-08-29 02:52:00,66.0,66.0,-100.00,NW,316,2.0,6.0,100,0.00,,,0.85,0.000000,,2013-08-29 06:52:00,
2013-08-29 03:01:00,66.0,66.0,-100.00,NW,316,2.0,6.0,100,0.00,,,0.85,0.000000,,2013-08-29 07:01:00,
2013-08-29 03:12:00,66.0,66.0,-100.00,NW,316,2.0,6.0,100,0.00,,,0.85,0.000000,,2013-08-29 07:12:00,
2013-08-29 03:42:00,66.0,66.0,-100.00,North,357,1.0,5.0,100,0.00,,,0.85,0.000000,,2013-08-29 07:42:00,
2013-08-29 03:53:00,66.0,66.0,-100.00,North,357,1.0,5.0,100,0.00,,,0.85,0.000000,,2013-08-29 07:53:00,
2013-08-29 04:02:00,66.0,66.0,-100.00,North,357,1.0,5.0,100,0.00,,,0.85,0.000000,,2013-08-29 08:02:00,
2013-08-29 04:12:00,66.0,66.0,-100.00,North,357,1.0,5.0,100,0.00,,,0.85,0.000000,,2013-08-29 08:12:00,
2013-08-29 04:42:00,65.0,65.0,-100.00,North,359,1.0,2.0,100,0.00,,,0.85,0.000000,,2013-08-29 08:42:00,
2013-08-29 04:52:00,65.0,65.0,-100.00,North,359,1.0,2.0,100,0.00,,,0.85,0.000000,,2013-08-29 08:52:00,
2013-08-29 05:01:00,65.0,65.0,-100.00,North,359,1.0,2.0,100,0.00,,,0.85,0.000000,,2013-08-29 09:01:00,
2013-08-29 05:12:00,65.0,65.0,-100.00,North,359,1.0,2.0,100,0.00,,,0.85,0.000000,,2013-08-29 09:12:00,
2013-08-29 05:15:00,65.0,65.0,-100.00,ESE,116,1.0,3.0,100,0.00,,,0.85,0.000000,,2013-08-29 09:15:00,
2013-08-29 05:43:00,65.0,65.0,-100.00,ESE,116,1.0,3.0,100,0.00,,,0.85,0.000000,,2013-08-29 09:43:00,
2013-08-29 05:55:00,65.0,65.0,-100.00,ESE,116,1.0,3.0,100,0.00,,,0.85,0.000000,,2013-08-29 09:55:00,
2013-08-29 06:06:00,65.0,65.0,-100.00,ESE,116,1.0,3.0,100,0.00,,,0.85,0.000000,,2013-08-29 10:06:00,
2013-08-29 06:43:00,65.0,65.0,-100.00,East,80,2.0,4.0,100,0.01,,,0.85,0.000000,,2013-08-29 10:43:00,
2013-08-29 06:53:00,65.0,65.0,-100.00,East,80,2.0,4.0,100,0.01,,,0.85,0.000000,,2013-08-29 10:53:00,
2013-08-29 07:03:00,65.0,65.0,-100.00,East,80,2.0,4.0,100,0.01,,,0.85,0.000000,,2013-08-29 11:03:00,
2013-08-29 07:12:00,65.0,65.0,-100.00,East,80,2.0,4.0,100,0.01,,,0.85,0.000000,,2013-08-29 11:12:00,
2013-08-29 07:42:00,65.0,65.0,-100.00,East,85,1.0,3.0,100,0.00,,,0.72,2.000000,,2013-08-29 11:42:00,
2013-08-29 07:52:00,65.0,65.0,-100.00,East,85,1.0,3.0,100,0.00,,,0.72,2.000000,,2013-08-29 11:52:00,
2013-08-29 08:02:00,65.0,65.0,-100.00,East,85,1.0,3.0,100,0.00,,,0.72,2.000000,,2013-08-29 12:02:00,
2013-08-29 08:12:00,65.0,65.0,-100.00,East,85,1.0,3.0,100,0.00,,,0.72,2.000000,,2013-08-29 12:12:00,
2013-08-29 08:42:00,65.0,65.0,-100.00,ENE,74,1.0,2.0,100,0.00,,,0.38,13.000000,,2013-08-29 12:42:00,
2013-08-29 08:52:00,65.0,65.0,-100.00,ENE,74,1.0,2.0,100,0.00,,,0.38,13.000000,,2013-08-29 12:52:00,
2013-08-29 09:02:00,65.0,65.0,-100.00,ENE,74,1.0,2.0,100,0.00,,,0.38,13.000000,,2013-08-29 13:02:00,
2013-08-29 09:12:00,65.0,65.0,-100.00,ENE,74,1.0,2.0,100,0.00,,,0.38,13.000000,,2013-08-29 13:12:00,
2013-08-29 09:42:00,64.0,64.0,-100.00,NE,49,1.0,3.0,100,0.00,,,0.12,41.000000,,2013-08-29 13:42:00,
2013-08-29 09:52:00,64.0,64.0,-100.00,NE,49,1.0,3.0,100,0.00,,,0.12,41.000000,,2013-08-29 13:52:00,
2013-08-29 10:02:00,64.0,64.0,-100.00,NE,49,1.0,3.0,100,0.00,,,0.12,41.000000,,2013-08-29 14:02:00,
2013-08-29 10:11:00,64.0,64.0,-100.00,NE,49,1.0,3.0,100,0.00,,,0.12,41.000000,,2013-08-29 14:11:00,
2013-08-29 10:42:00,65.0,65.0,-100.00,ENE,75,1.0,2.0,100,0.01,,,0.10,92.000000,,2013-08-29 14:42:00,
2013-08-29 10:52:00,65.0,65.0,-100.00,ENE,75,1.0,2.0,100,0.01,,,0.10,92.000000,,2013-08-29 14:52:00,
2013-08-29 11:02:00,65.0,65.0,-100.00,ENE,75,1.0,2.0,100,0.01,,,0.10,92.000000,,2013-08-29 15:02:00,
2013-08-29 11:12:00,65.0,65.0,-100.00,ENE,75,1.0,2.0,100,0.01,,,0.10,92.000000,,2013-08-29 15:12:00,
2013-08-29 11:43:00,68.0,68.0,-100.00,ENE,59,2.0,3.0,100,0.00,,,0.08,184.000000,,2013-08-29 15:43:00,
2013-08-29 11:53:00,68.0,68.0,-100.00,ENE,59,2.0,3.0,100,0.00,,,0.08,184.000000,,2013-08-29 15:53:00,
2013-08-29 12:05:00,68.0,68.0,-100.00,ENE,59,2.0,3.0,100,0.00,,,0.08,184.000000,,2013-08-29 16:05:00,
2013-08-29 12:13:00,68.0,68.0,-100.00,ENE,59,2.0,3.0,100,0.00,,,0.08,184.000000,,2013-08-29 16:13:00,
2013-08-29 12:43:00,72.0,70.0,-100.00,ENE,71,3.0,5.0,93,0.00,,,0.08,359.000000,,2013-08-29 16:43:00,
2013-08-29 12:54:00,72.0,70.0,-100.00,ENE,71,3.0,5.0,93,0.00,,,0.08,359.000000,,2013-08-29 16:54:00,
2013-08-29 13:04:00,72.0,70.0,-100.00,ENE,71,3.0,5.0,93,0.00,,,0.08,359.000000,,2013-08-29 17:04:00,
2013-08-29 13:13:00,72.0,70.0,-100.00,ENE,71,3.0,5.0,93,0.00,,,0.08,359.000000,,2013-08-29 17:13:00,
2013-08-29 13:44:00,72.0,68.0,-100.00,ENE,76,3.0,6.0,87,0.00,,,0.08,336.000000,,2013-08-29 17:44:00,
2013-08-29 13:53:00,72.0,68.0,-100.00,ENE,76,3.0,6.0,87,0.00,,,0.08,336.000000,,2013-08-29 17:53:00,
2013-08-29 14:02:00,72.0,68.0,-100.00,ENE,76,3.0,6.0,87,0.00,,,0.08,336.000000,,2013-08-29 18:02:00,
2013-08-29 14:12:00,72.0,68.0,-100.00,ENE,76,3.0,6.0,87,0.00,,,0.08,336.000000,,2013-08-29 18:12:00,
2013-08-29 14:42:00,75.0,66.0,-100.00,ESE,120,2.0,6.0,73,0.00,,,0.08,575.000000,,2013-08-29 18:42:00,
2013-08-29 14:52:00,75.0,66.0,-100.00,ESE,120,2.0,6.0,73,0.00,,,0.08,575.000000,,2013-08-29 18:52:00,
2013-08-29 15:01:00,75.0,66.0,-100.00,ESE,120,2.0,6.0,73,0.00,,,0.08,575.000000,,2013-08-29 19:01:00,
2013-08-29 15:11:00,75.0,66.0,-100.00,ESE,120,2.0,6.0,73,0.00,,,0.08,575.000000,,2013-08-29 19:11:00,
2013-08-29 15:42:00,74.0,65.0,-100.00,East,101,1.0,4.0,74,0.00,,,0.08,438.000000,,2013-08-29 19:42:00,
2013-08-29 15:53:00,74.0,65.0,-100.00,East,101,1.0,4.0,74,0.00,,,0.08,438.000000,,2013-08-29 19:53:00,
2013-08-29 16:02:00,74.0,65.0,-100.00,East,101,1.0,4.0,74,0.00,,,0.08,438.000000,,2013-08-29 20:02:00,
2013-08-29 16:13:00,74.0,65.0,-100.00,East,101,1.0,4.0,74,0.00,,,0.08,438.000000,,2013-08-29 20:13:00,
2013-08-29 16:42:00,79.0,69.0,-100.00,ESE,122,1.0,2.0,71,0.00,,,0.08,510.000000,,2013-08-29 20:42:00,
2013-08-29 16:52:00,79.0,69.0,-100.00,ESE,122,1.0,2.0,71,0.00,,,0.08,510.000000,,2013-08-29 20:52:00,
2013-08-29 17:02:00,79.0,69.0,-100.00,ESE,122,1.0,2.0,71,0.00,,,0.08,510.000000,,2013-08-29 21:02:00,
2013-08-29 17:12:00,79.0,69.0,-100.00,ESE,122,1.0,2.0,71,0.00,,,0.08,510.000000,,2013-08-29 21:12:00,
2013-08-29 17:44:00,72.0,62.0,-100.00,East,90,1.0,3.0,72,0.00,,,0.08,224.000000,,2013-08-29 21:44:00,
2013-08-29 17:54:00,72.0,62.0,-100.00,East,90,1.0,3.0,72,0.00,,,0.08,224.000000,,2013-08-29 21:54:00,
2013-08-29 18:04:00,72.0,62.0,-100.00,East,90,1.0,3.0,72,0.00,,,0.08,224.000000,,2013-08-29 22:04:00,
2013-08-29 18:14:00,72.0,62.0,-100.00,East,90,1.0,3.0,72,0.00,,,0.08,224.000000,,2013-08-29 22:14:00,
2013-08-29 18:53:00,71.0,64.0,-100.00,SE,125,2.0,4.0,78,0.00,,,0.04,144.000000,,2013-08-29 22:53:00,
2013-08-29 19:03:00,71.0,64.0,-100.00,SE,125,2.0,4.0,78,0.00,,,0.04,144.000000,,2013-08-29 23:03:00,
2013-08-29 19:13:00,71.0,64.0,-100.00,SE,125,2.0,4.0,78,0.00,,,0.04,144.000000,,2013-08-29 23:13:00,
2013-08-29 19:43:00,67.0,63.0,-100.00,East,83,1.0,3.0,88,0.00,,,0.04,32.000000,,2013-08-29 23:43:00,
2013-08-29 19:53:00,67.0,63.0,-100.00,East,83,1.0,3.0,88,0.00,,,0.04,32.000000,,2013-08-29 23:53:00,
2013-08-29 20:02:00,67.0,63.0,-100.00,East,83,1.0,3.0,88,0.00,,,0.04,32.000000,,2013-08-30 00:02:00,
2013-08-29 20:12:00,67.0,63.0,-100.00,East,83,1.0,3.0,88,0.00,,,0.04,32.000000,,2013-08-30 00:12:00,
2013-08-29 20:42:00,65.0,64.0,-100.00,SSE,162,1.0,2.0,97,0.00,,,0.04,6.000000,,2013-08-30 00:42:00,
2013-08-29 20:52:00,65.0,64.0,-100.00,SSE,162,1.0,2.0,97,0.00,,,0.04,6.000000,,2013-08-30 00:52:00,
2013-08-29 21:02:00,65.0,64.0,-100.00,SSE,162,1.0,2.0,97,0.00,,,0.04,6.000000,,2013-08-30 01:02:00,
2013-08-29 21:12:00,65.0,64.0,-100.00,SSE,162,1.0,2.0,97,0.00,,,0.04,6.000000,,2013-08-30 01:12:00,
2013-08-29 21:42:00,65.0,64.0,-100.00,SSE,159,1.0,2.0,98,0.00,,,0.04,0.000000,,2013-08-30 01:42:00,
2013-08-29 21:52:00,65.0,64.0,-100.00,SSE,159,1.0,2.0,98,0.00,,,0.04,0.000000,,2013-08-30 01:52:00,
2013-08-29 22:02:00,65.0,64.0,-100.00,SSE,159,1.0,2.0,98,0.00,,,0.04,0.000000,,2013-08-30 02:02:00,
2013-08-29 22:11:00,65.0,64.0,-100.00,SSE,159,1.0,2.0,98,0.00,,,0.04,0.000000,,2013-08-30 02:11:00,
2013-08-29 22:42:00,65.0,64.0,-100.00,SSE,166,1.0,2.0,98,0.00,,,0.04,0.000000,,2013-08-30 02:42:00,
2013-08-29 22:52:00,65.0,64.0,-100.00,SSE,166,1.0,2.0,98,0.00,,,0.04,0.000000,,2013-08-30 02:52:00,
2013-08-29 23:02:00,65.0,64.0,-100.00,SSE,166,1.0,2.0,98,0.00,,,0.04,0.000000,,2013-08-30 03:02:00,
2013-08-29 23:12:00,65.0,64.0,-100.00,SSE,166,1.0,2.0,98,0.00,,,0.04,0.000000,,2013-08-30 03:12:00,
2013-08-29 23:43:00,64.0,63.0,-100.00,South,175,1.0,3.0,95,0.00,,,0.02,0.000000,,2013-08-30 03:43:00,
2013-08-29 23:55:00,64.0,63.0,-100.00,South,175,1.0,3.0,95,0.00,,,0.02,0.000000,,2013-08-30 03:55:00,